[[{"header":{"parameterUnit":"m.s-1","parameterCategory":1,"la1":30.2991,"la2":30.254,"lo1":-89.0895,"lo2":-89.0444,"dy":0.0017,"dx":0.0017,"nx":28,"ny":28,"refTime":"2025-05-24T03:00:00:Z","depth":0,"parameterNumber":2,"parameterNumberName":"U-component_of_WINDS"},"data":[0,0,0,0,0,0,0,0,0,0,0,0,0,0,0,0,0,0,0,0,0,0,0,0,0,0,0,0,0,0,0,0,0,0,0,0,0,0,0,0,0,0,0,0,0,0,0,0,0,0,0,0,0,0,0,0,0,0,-0.5912,-0.5911,0,-0.5808,-0.5807,-0.5806,-0.5728,-0.5727,-0.5727,-0.5726,-0.5618,-0.5616,-0.5614,0,0,0,0,0,0,0,0,0,0,0,0,0,-0.6045,-0.6043,-0.5913,-0.5911,-0.591,-0.5808,-0.5807,-0.5805,-0.5728,-0.5727,-0.5727,-0.5726,-0.5619,-0.5616,-0.5614,0,0,0,0,0,0,0,0,0,0,0,0,0,-0.5969,-0.6042,-0.5913,-0.5859,-0.5853,-0.5809,-0.5807,-0.5805,-0.5728,-0.5727,-0.5726,-0.5725,-0.562,-0.5617,-0.5613,-0.5613,0,0,-0.5603,-0.5602,0,0,0,0,0,0,0,0,-0.5973,-0.5964,-0.5868,-0.5863,-0.5856,-0.578,-0.5814,-0.5741,-0.5729,-0.5776,-0.5726,-0.5725,-0.5673,-0.5665,-0.5648,-0.5608,-0.5603,-0.5603,-0.5601,-0.5599,-0.5598,0,0,0,0,0,0,0,-0.5979,-0.5968,-0.5871,-0.5867,-0.586,-0.584,-0.5828,-0.58,-0.5731,-0.5772,-0.5766,-0.5755,-0.5669,-0.5651,-0.5645,-0.5602,-0.5603,-0.56,-0.5598,-0.5597,-0.5558,-0.5558,0,0,0,0,0,0,-0.5992,-0.5973,-0.5874,-0.5868,-0.5913,-0.5839,-0.5825,-0.5806,-0.5731,-0.5719,-0.5756,-0.5751,-0.5657,-0.5649,-0.5641,-0.5636,-0.5599,-0.5596,-0.5594,-0.5557,-0.5558,-0.5559,0,0,0,0,0,0,-0.5995,-0.5984,-0.5879,-0.5919,-0.5904,-0.5838,-0.5816,-0.5804,-0.5786,-0.5719,-0.5707,-0.575,-0.5656,-0.5645,-0.5621,-0.5631,-0.5595,-0.5592,-0.5555,-0.5557,-0.5558,-0.5627,0,0,0,0,0,0,-0.6,-0.5986,-0.5985,-0.5919,-0.5902,-0.5861,-0.5816,-0.5803,-0.578,-0.5774,-0.571,-0.5699,-0.5655,-0.5626,-0.5618,-0.5626,-0.5589,-0.5554,-0.5556,-0.5558,-0.5623,-0.5631,-0.5637,0,0,0,0,0,-0.6005,-0.6008,-0.5985,-0.5974,-0.59,-0.5862,-0.5852,-0.5801,-0.5781,-0.578,-0.5738,-0.5701,-0.5632,-0.5624,-0.5614,-0.5622,-0.5553,-0.5556,-0.5558,-0.562,-0.5629,-0.5636,0,0,0,0,0,0,-0.6076,-0.5998,-0.5972,-0.5955,-0.5916,-0.5849,-0.5845,-0.5812,-0.5777,-0.5772,-0.5711,-0.5697,-0.5679,-0.5648,-0.5641,-0.5618,-0.5588,-0.5588,-0.5639,-0.5647,-0.5653,-0.5661,-0.5586,0,0,0,0,0,-0.609,-0.6066,-0.5999,-0.599,-0.5972,-0.5912,-0.5894,-0.5858,-0.5815,-0.5798,-0.5753,-0.5712,-0.5681,-0.5662,-0.563,-0.5618,-0.5604,-0.5618,-0.5625,-0.5631,-0.5632,-0.5624,-0.563,-0.5566,-0.5566,-0.5566,0,0,-0.6118,-0.6073,-0.6061,-0.6003,-0.5969,-0.5945,-0.5899,-0.5875,-0.5857,-0.5794,-0.5768,-0.5735,-0.5685,-0.5667,-0.5657,-0.564,-0.5646,-0.5634,-0.5639,-0.5636,-0.5627,-0.5633,-0.5639,-0.5568,-0.5567,-0.5567,0,0,-0.6158,-0.6121,-0.6109,-0.6076,-0.6024,-0.5985,-0.5982,-0.5921,-0.5896,-0.5869,-0.5822,-0.5799,-0.5747,-0.5714,-0.569,-0.5718,-0.5683,-0.5709,-0.5744,-0.5737,-0.5742,-0.5747,-0.5757,-0.5762,-0.571,-0.5711,-0.5711,0,-0.6199,-0.6162,-0.6108,-0.6088,-0.6064,-0.6006,-0.5995,-0.5965,-0.5905,-0.589,-0.5872,-0.5806,-0.5768,-0.5743,-0.575,-0.5732,-0.5728,-0.5716,-0.5746,-0.575,-0.5753,-0.5762,-0.5766,-0.5714,-0.5714,-0.5713,-0.5713,0,-0.6216,-0.6191,-0.6188,-0.6133,-0.6108,-0.6093,-0.6037,-0.6019,-0.5986,-0.5948,-0.5922,-0.5875,-0.5833,-0.5824,-0.5791,-0.5794,-0.5785,-0.5758,-0.5726,-0.5763,-0.5771,-0.5774,-0.5719,-0.5718,-0.5717,-0.5716,0,0,-0.6297,-0.6213,-0.6213,-0.6187,-0.6127,-0.6106,-0.6088,-0.6047,-0.6033,-0.5994,-0.5978,-0.5935,-0.591,-0.5883,-0.5846,-0.584,-0.5866,-0.5813,-0.5811,-0.5825,-0.5867,-0.5889,-0.5894,-0.5843,-0.5843,-0.5843,-0.5872,0,-0.6327,-0.6292,-0.6244,-0.6225,-0.6201,-0.6146,-0.6131,-0.6092,-0.6057,-0.6032,-0.5992,-0.5964,-0.5931,-0.5915,-0.5907,-0.5865,-0.5874,-0.5862,-0.5827,-0.5826,-0.5842,-0.5898,-0.5921,-0.5949,-0.5874,-0.5875,-0.5875,0,-0.6358,-0.6323,-0.6302,-0.6244,-0.6232,-0.6219,-0.6178,-0.6155,-0.611,-0.6085,-0.6056,-0.6016,-0.5994,-0.5966,-0.5935,-0.5928,-0.5911,-0.5889,-0.5888,-0.5883,-0.5854,-0.5895,-0.5957,-0.5962,-0.5879,-0.5879,-0.5879,0,-0.6421,-0.6368,-0.6349,-0.6329,-0.626,-0.6252,-0.6224,-0.6177,-0.6156,-0.612,-0.6106,-0.6068,-0.6048,-0.6019,-0.597,-0.5954,-0.5945,-0.5913,-0.5924,-0.5925,-0.5925,-0.5926,-0.5986,-0.5913,-0.5913,-0.5913,-0.5913,0,-0.646,-0.645,-0.6376,-0.6365,-0.6351,-0.6296,-0.6284,-0.625,-0.621,-0.6191,-0.614,-0.6124,-0.606,-0.6035,-0.5997,-0.5978,-0.5968,-0.5948,-0.5938,-0.5953,-0.5955,-0.5941,-0.5938,-0.5914,-0.5914,-0.5914,-0.5913,0,-0.6528,-0.6478,-0.6454,-0.6391,-0.6375,-0.6369,-0.6315,-0.6302,-0.6264,-0.624,-0.6232,-0.6172,-0.6141,-0.6089,-0.6042,-0.6017,-0.6005,-0.5988,-0.6021,-0.6015,-0.6029,-0.6029,-0.6082,-0.6087,-0.6011,-0.6012,-0.6013,0,-0.6557,-0.6547,-0.6484,-0.6468,-0.6441,-0.6416,-0.6394,-0.6339,-0.6319,-0.6267,-0.626,-0.6225,-0.6195,-0.6147,-0.61,-0.6064,-0.6046,-0.6067,-0.604,-0.6056,-0.6047,-0.6048,-0.6048,-0.6074,-0.6075,-0.6076,-0.6076,0,-0.6613,-0.6589,-0.656,-0.6523,-0.6499,-0.6467,-0.6432,-0.6422,-0.6359,-0.6339,-0.6306,-0.6283,-0.6236,-0.6202,-0.616,-0.6129,-0.6093,-0.6085,-0.6086,-0.6101,-0.6121,-0.6111,-0.6038,-0.6084,-0.6083,-0.6083,-0.6082,-0.6082,-0.6662,-0.6652,-0.6607,-0.6576,-0.6544,-0.6513,-0.6498,-0.6459,-0.6431,-0.6389,-0.6358,-0.6328,-0.6284,-0.6224,-0.6196,-0.6172,-0.6155,-0.6156,-0.6156,-0.6158,-0.6164,-0.6125,-0.6164,-0.6163,-0.6163,-0.6163,-0.6163,0,-0.6717,-0.6685,-0.6658,-0.6611,-0.6588,-0.6556,-0.6516,-0.6498,-0.6473,-0.6435,-0.6406,-0.6369,-0.6336,-0.6286,-0.625,-0.624,-0.6222,-0.6232,-0.6233,-0.6226,-0.618,-0.6184,-0.6247,-0.6247,-0.6247,-0.6247,-0.6247,-0.6247,-0.6743,-0.6724,-0.6695,-0.666,-0.6628,-0.6599,-0.6579,-0.655,-0.652,-0.6481,-0.6454,-0.6422,-0.6379,-0.6339,-0.6308,-0.6294,-0.6283,-0.6298,-0.6279,-0.6237,-0.623,-0.6222,-0.6225,-0.6296,-0.6296,-0.6327,-0.6328,-0.6328]},{"header":{"parameterUnit":"m.s-1","parameterCategory":1,"la1":30.2991,"la2":30.254,"lo1":-89.0895,"lo2":-89.0444,"dy":0.0017,"dx":0.0017,"nx":28,"ny":28,"refTime":"2025-05-24T03:00:00:Z","depth":0,"parameterNumber":3,"parameterNumberName":"V-component_of_WINDS"},"data":[0,0,0,0,0,0,0,0,0,0,0,0,0,0,0,0,0,0,0,0,0,0,0,0,0,0,0,0,0,0,0,0,0,0,0,0,0,0,0,0,0,0,0,0,0,0,0,0,0,0,0,0,0,0,0,0,0,0,1.7714,1.7713,0,1.7664,1.7664,1.7663,1.7617,1.7617,1.7616,1.7616,1.7561,1.756,1.756,0,0,0,0,0,0,0,0,0,0,0,0,0,1.7765,1.7765,1.7714,1.7713,1.7712,1.7664,1.7664,1.7663,1.7617,1.7617,1.7616,1.7615,1.7562,1.7561,1.7559,0,0,0,0,0,0,0,0,0,0,0,0,0,1.7732,1.7764,1.7714,1.7684,1.7681,1.7664,1.7664,1.7663,1.7617,1.7617,1.7616,1.7615,1.7562,1.7561,1.7559,1.7567,0,0,1.7555,1.7554,0,0,0,0,0,0,0,0,1.7734,1.773,1.7689,1.7686,1.7682,1.7646,1.7662,1.7631,1.7618,1.7641,1.7616,1.7615,1.759,1.7586,1.7579,1.7565,1.7563,1.7555,1.7554,1.7554,1.7553,0,0,0,0,0,0,0,1.7736,1.7732,1.7694,1.7688,1.7684,1.7672,1.7666,1.7656,1.7621,1.7639,1.7636,1.7631,1.7588,1.758,1.7577,1.7562,1.7555,1.7554,1.7553,1.7552,1.7552,1.7553,0,0,0,0,0,0,1.7744,1.7734,1.7695,1.7692,1.7707,1.7672,1.7665,1.7658,1.7621,1.7614,1.7632,1.7629,1.7583,1.7579,1.7575,1.7582,1.7554,1.7552,1.7551,1.7551,1.7552,1.7553,0,0,0,0,0,0,1.7745,1.7741,1.7697,1.7712,1.7706,1.7672,1.7664,1.7658,1.765,1.7615,1.7608,1.763,1.7582,1.7577,1.757,1.7579,1.7552,1.755,1.755,1.7551,1.7552,1.7596,0,0,0,0,0,0,1.7747,1.7741,1.7745,1.7713,1.7705,1.7694,1.7665,1.7658,1.7648,1.7644,1.7612,1.7606,1.7581,1.7572,1.7569,1.7577,1.7549,1.7549,1.7551,1.7552,1.7593,1.7599,1.7603,0,0,0,0,0,1.7749,1.7758,1.7745,1.7741,1.7709,1.7695,1.7691,1.7663,1.7649,1.7652,1.7629,1.7607,1.7579,1.7572,1.7567,1.7575,1.7548,1.755,1.7552,1.7591,1.7598,1.7603,0,0,0,0,0,0,1.7791,1.7754,1.7739,1.7738,1.772,1.7687,1.769,1.767,1.7655,1.7652,1.7617,1.761,1.7607,1.759,1.7583,1.7581,1.7561,1.7562,1.7592,1.7598,1.7602,1.7606,1.7548,0,0,0,0,0,1.7801,1.7793,1.776,1.7763,1.7755,1.7724,1.7717,1.7698,1.7677,1.7669,1.7645,1.7625,1.7612,1.7604,1.759,1.7591,1.7583,1.7594,1.7599,1.7603,1.7604,1.7603,1.7608,1.7559,1.7559,1.7559,0,0,1.782,1.7798,1.7796,1.7771,1.7755,1.7747,1.7718,1.7711,1.7704,1.7667,1.7659,1.7642,1.7617,1.7614,1.7612,1.76,1.7616,1.7605,1.7609,1.7608,1.7606,1.761,1.7615,1.756,1.756,1.756,0,0,1.7851,1.7834,1.7835,1.7819,1.7795,1.7775,1.7775,1.7745,1.7732,1.7724,1.7696,1.7687,1.7665,1.7649,1.7638,1.7663,1.7642,1.7659,1.7683,1.7683,1.7687,1.769,1.7699,1.7703,1.7661,1.7661,1.7661,0,1.7877,1.7865,1.7837,1.7832,1.7822,1.7789,1.7789,1.7775,1.7747,1.7741,1.7729,1.7701,1.7682,1.7675,1.7681,1.7673,1.7672,1.7663,1.7689,1.7692,1.7694,1.7702,1.7706,1.7663,1.7663,1.7663,1.7662,0,1.7899,1.7891,1.7894,1.787,1.786,1.7858,1.7828,1.7822,1.7803,1.7784,1.7776,1.7752,1.7732,1.7729,1.771,1.7719,1.7713,1.7696,1.7674,1.7702,1.7709,1.7712,1.7666,1.7666,1.7665,1.7664,0,0,1.7954,1.7915,1.7917,1.7905,1.7877,1.787,1.7865,1.7848,1.7843,1.7825,1.782,1.7802,1.7786,1.7773,1.7752,1.7752,1.7774,1.7734,1.7733,1.7742,1.7782,1.7795,1.7799,1.7759,1.776,1.776,1.7784,0,1.798,1.7972,1.7947,1.7945,1.7938,1.7907,1.7903,1.7884,1.7866,1.7856,1.7835,1.7824,1.7803,1.7795,1.7794,1.7771,1.7781,1.7769,1.7753,1.7753,1.7761,1.7803,1.7816,1.784,1.7786,1.7787,1.7787,0,1.8009,1.7995,1.7993,1.7965,1.7961,1.7958,1.794,1.7931,1.791,1.7896,1.7883,1.786,1.7853,1.7833,1.7823,1.7815,1.7807,1.7795,1.7796,1.7793,1.7772,1.7801,1.7846,1.785,1.7791,1.7791,1.779,0,1.805,1.8029,1.8026,1.8017,1.7985,1.7984,1.797,1.7947,1.7938,1.7922,1.7916,1.7899,1.7889,1.7876,1.7848,1.7837,1.7841,1.7819,1.7829,1.7829,1.783,1.7831,1.7876,1.7826,1.7826,1.7826,1.7826,0,1.8081,1.8081,1.8044,1.8042,1.8041,1.8012,1.8011,1.7994,1.7975,1.7968,1.794,1.7934,1.7899,1.7889,1.7867,1.7861,1.7857,1.7846,1.784,1.7848,1.785,1.7842,1.784,1.7827,1.7827,1.7826,1.7826,0,1.8126,1.8101,1.8095,1.8065,1.8058,1.8059,1.8032,1.8029,1.8009,1.8001,1.7997,1.7966,1.7953,1.7925,1.7903,1.7889,1.7888,1.7878,1.7896,1.7892,1.7904,1.7903,1.7945,1.7949,1.7897,1.7898,1.7898,0,1.8147,1.8147,1.8117,1.8112,1.8099,1.809,1.8081,1.8052,1.8044,1.802,1.8019,1.8003,1.799,1.7969,1.7944,1.7927,1.7917,1.7932,1.7914,1.7922,1.7917,1.7917,1.7917,1.7937,1.7937,1.7938,1.7938,0,1.8188,1.8176,1.8165,1.8149,1.814,1.8126,1.8111,1.8107,1.8074,1.8066,1.8053,1.8043,1.8021,1.8006,1.7986,1.797,1.7949,1.7945,1.7946,1.7954,1.7965,1.7959,1.7907,1.7944,1.7943,1.7943,1.7942,1.7942,1.8221,1.822,1.8199,1.8188,1.8173,1.816,1.8155,1.8135,1.8124,1.8106,1.8089,1.8077,1.8055,1.8026,1.8012,1.8002,1.7991,1.7993,1.7993,1.7994,1.7998,1.7967,1.7998,1.7998,1.7997,1.7997,1.7997,0,1.826,1.8246,1.8236,1.8216,1.8207,1.8189,1.8171,1.8164,1.8154,1.8137,1.8124,1.8109,1.8094,1.8068,1.8051,1.8048,1.8037,1.8044,1.8044,1.8041,1.8008,1.8009,1.8053,1.8053,1.8053,1.8053,1.8053,1.8053,1.828,1.8276,1.8262,1.8251,1.8235,1.8225,1.8216,1.8203,1.8189,1.8174,1.8162,1.8146,1.8124,1.8106,1.8091,1.8084,1.8079,1.8089,1.8078,1.8048,1.8043,1.8038,1.8038,1.8088,1.8088,1.8111,1.8112,1.8112]}]]